Year,Month,Day,Hour,Minute,Value (Times are PST for temperature in C)
2018,09,30,00,00,14.50
2018,09,30,00,01,14.50
2018,09,30,00,02,14.40
2018,09,30,00,03,14.40
2018,09,30,00,04,14.40
2018,09,30,00,05,14.40
2018,09,30,00,06,14.30
2018,09,30,00,07,14.30
2018,09,30,00,08,14.30
2018,09,30,00,09,14.30
2018,09,30,00,10,14.30
2018,09,30,00,11,14.30
2018,09,30,00,12,14.20
2018,09,30,00,13,14.20
2018,09,30,00,14,14.20
2018,09,30,00,15,14.20
2018,09,30,00,16,14.10
2018,09,30,00,17,14.10
2018,09,30,00,18,14.10
2018,09,30,00,19,14.10
2018,09,30,00,20,14.00
2018,09,30,00,21,14.00
2018,09,30,00,22,14.00
2018,09,30,00,23,14.00
2018,09,30,00,24,14.00
2018,09,30,00,25,14.00
2018,09,30,00,26,14.00
2018,09,30,00,27,14.00
2018,09,30,00,28,14.00
2018,09,30,00,29,14.00
2018,09,30,00,30,14.00
2018,09,30,00,31,14.10
2018,09,30,00,32,14.10
2018,09,30,00,33,14.20
2018,09,30,00,34,14.20
2018,09,30,00,35,14.20
2018,09,30,00,36,14.30
2018,09,30,00,37,14.30
2018,09,30,00,38,14.30
2018,09,30,00,39,14.40
2018,09,30,00,40,14.40
2018,09,30,00,41,14.50
2018,09,30,00,42,14.50
2018,09,30,00,43,14.60
2018,09,30,00,44,14.60
2018,09,30,00,45,14.60
2018,09,30,00,46,14.70
2018,09,30,00,47,14.70
2018,09,30,00,48,14.70
2018,09,30,00,49,14.80
2018,09,30,00,50,14.80
2018,09,30,00,51,14.80
2018,09,30,00,52,14.90
2018,09,30,00,53,14.90
2018,09,30,00,54,14.90
2018,09,30,00,55,15.00
2018,09,30,00,56,15.00
2018,09,30,00,57,14.90
2018,09,30,00,58,14.80
2018,09,30,00,59,14.70
2018,09,30,01,00,14.60
2018,09,30,01,01,14.50
2018,09,30,01,02,14.40
2018,09,30,01,03,14.30
2018,09,30,01,04,14.30
2018,09,30,01,05,14.30
2018,09,30,01,06,14.30
2018,09,30,01,07,14.30
2018,09,30,01,08,14.30
2018,09,30,01,09,14.30
2018,09,30,01,10,14.40
2018,09,30,01,11,14.40
2018,09,30,01,12,14.40
2018,09,30,01,13,14.40
2018,09,30,01,14,14.40
2018,09,30,01,15,14.40
2018,09,30,01,16,14.40
2018,09,30,01,17,14.40
2018,09,30,01,18,14.40
2018,09,30,01,19,14.40
2018,09,30,01,20,14.40
2018,09,30,01,21,14.40
2018,09,30,01,22,14.40
2018,09,30,01,23,14.40
2018,09,30,01,24,14.30
2018,09,30,01,25,14.30
2018,09,30,01,26,14.30
2018,09,30,01,27,14.20
2018,09,30,01,28,14.20
2018,09,30,01,29,14.20
2018,09,30,01,30,14.20
2018,09,30,01,31,14.20
2018,09,30,01,32,14.10
2018,09,30,01,33,14.10
2018,09,30,01,34,14.10
2018,09,30,01,35,14.10
2018,09,30,01,36,14.10
2018,09,30,01,37,14.10
2018,09,30,01,38,14.10
2018,09,30,01,39,14.10
2018,09,30,01,40,14.00
2018,09,30,01,41,14.00
2018,09,30,01,42,14.00
2018,09,30,01,43,14.00
2018,09,30,01,44,14.00
2018,09,30,01,45,13.90
2018,09,30,01,46,13.90
2018,09,30,01,47,14.00
2018,09,30,01,48,14.00
2018,09,30,01,49,14.00
2018,09,30,01,50,14.00
2018,09,30,01,51,14.00
2018,09,30,01,52,14.00
2018,09,30,01,53,14.00
2018,09,30,01,54,14.00
2018,09,30,01,55,14.00
2018,09,30,01,56,14.10
2018,09,30,01,57,14.10
2018,09,30,01,58,14.10
2018,09,30,01,59,14.10
2018,09,30,02,00,14.10
2018,09,30,02,01,14.10
2018,09,30,02,02,14.20
2018,09,30,02,03,14.10
2018,09,30,02,04,14.10
2018,09,30,02,05,14.10
2018,09,30,02,06,14.10
2018,09,30,02,07,14.10
2018,09,30,02,08,14.10
2018,09,30,02,09,14.10
2018,09,30,02,10,14.20
2018,09,30,02,11,14.20
2018,09,30,02,12,14.20
2018,09,30,02,13,14.20
2018,09,30,02,14,14.30
2018,09,30,02,15,14.30
2018,09,30,02,16,14.30
2018,09,30,02,17,14.40
2018,09,30,02,18,14.40
2018,09,30,02,19,14.40
2018,09,30,02,20,14.50
2018,09,30,02,21,14.50
2018,09,30,02,22,14.50
2018,09,30,02,23,14.50
2018,09,30,02,24,14.50
2018,09,30,02,25,14.50
2018,09,30,02,26,14.50
2018,09,30,02,27,14.50
2018,09,30,02,28,14.50
2018,09,30,02,29,14.50
2018,09,30,02,30,14.40
2018,09,30,02,31,14.40
2018,09,30,02,32,14.30
2018,09,30,02,33,14.30
2018,09,30,02,34,14.20
2018,09,30,02,35,14.20
2018,09,30,02,36,14.10
2018,09,30,02,37,14.10
2018,09,30,02,38,14.10
2018,09,30,02,39,14.00
2018,09,30,02,40,14.00
2018,09,30,02,41,13.90
2018,09,30,02,42,13.80
2018,09,30,02,43,13.80
2018,09,30,02,44,13.70
2018,09,30,02,45,13.70
2018,09,30,02,46,13.60
2018,09,30,02,47,13.60
2018,09,30,02,48,13.60
2018,09,30,02,49,13.50
2018,09,30,02,50,13.50
2018,09,30,02,51,13.40
2018,09,30,02,52,13.40
2018,09,30,02,53,13.30
2018,09,30,02,54,13.30
2018,09,30,02,55,13.20
2018,09,30,02,56,13.20
2018,09,30,02,57,13.10
2018,09,30,02,58,13.10
2018,09,30,02,59,13.10
2018,09,30,03,00,13.00
2018,09,30,03,01,12.90
2018,09,30,03,02,12.90
2018,09,30,03,03,12.90
2018,09,30,03,04,12.80
2018,09,30,03,05,12.80
2018,09,30,03,06,12.80
2018,09,30,03,07,12.80
2018,09,30,03,08,12.70
2018,09,30,03,09,12.70
2018,09,30,03,10,12.70
2018,09,30,03,11,12.70
2018,09,30,03,12,12.60
2018,09,30,03,13,12.60
2018,09,30,03,14,12.60
2018,09,30,03,15,12.60
2018,09,30,03,16,12.60
2018,09,30,03,17,12.50
2018,09,30,03,18,12.50
2018,09,30,03,19,12.50
2018,09,30,03,20,12.50
2018,09,30,03,21,12.50
2018,09,30,03,22,12.40
2018,09,30,03,23,12.40
2018,09,30,03,24,12.40
2018,09,30,03,25,12.40
2018,09,30,03,26,12.40
2018,09,30,03,27,12.40
2018,09,30,03,28,12.40
2018,09,30,03,29,12.40
2018,09,30,03,30,12.40
2018,09,30,03,31,12.30
2018,09,30,03,32,12.30
2018,09,30,03,33,12.30
2018,09,30,03,34,12.30
2018,09,30,03,35,12.30
2018,09,30,03,36,12.30
2018,09,30,03,37,12.30
2018,09,30,03,38,12.30
2018,09,30,03,39,12.30
2018,09,30,03,40,12.30
2018,09,30,03,41,12.30
2018,09,30,03,42,12.30
2018,09,30,03,43,12.30
2018,09,30,03,44,12.30
2018,09,30,03,45,12.30
2018,09,30,03,46,12.30
2018,09,30,03,47,12.30
2018,09,30,03,48,12.30
2018,09,30,03,49,12.30
2018,09,30,03,50,12.30
2018,09,30,03,51,12.30
2018,09,30,03,52,12.30
2018,09,30,03,53,12.30
2018,09,30,03,54,12.30
2018,09,30,03,55,12.30
2018,09,30,03,56,12.30
2018,09,30,03,57,12.30
2018,09,30,03,58,12.30
2018,09,30,03,59,12.20
2018,09,30,04,00,12.20
2018,09,30,04,01,12.20
2018,09,30,04,02,12.20
2018,09,30,04,03,12.20
2018,09,30,04,04,12.20
2018,09,30,04,05,12.20
2018,09,30,04,06,12.20
2018,09,30,04,07,12.10
2018,09,30,04,08,12.10
2018,09,30,04,09,12.10
2018,09,30,04,10,12.10
2018,09,30,04,11,12.10
2018,09,30,04,12,12.10
2018,09,30,04,13,12.10
2018,09,30,04,14,12.10
2018,09,30,04,15,12.10
2018,09,30,04,16,12.10
2018,09,30,04,17,12.10
2018,09,30,04,18,12.00
2018,09,30,04,19,12.00
2018,09,30,04,20,12.00
2018,09,30,04,21,12.00
2018,09,30,04,22,12.00
2018,09,30,04,23,12.00
2018,09,30,04,24,12.00
2018,09,30,04,25,12.00
2018,09,30,04,26,12.00
2018,09,30,04,27,12.00
2018,09,30,04,28,12.00
2018,09,30,04,29,12.00
2018,09,30,04,30,12.00
2018,09,30,04,31,12.00
2018,09,30,04,32,12.00
2018,09,30,04,33,12.00
2018,09,30,04,34,12.10
2018,09,30,04,35,12.10
2018,09,30,04,36,12.10
2018,09,30,04,37,12.10
2018,09,30,04,38,12.10
2018,09,30,04,39,12.10
2018,09,30,04,40,12.10
2018,09,30,04,41,12.10
2018,09,30,04,42,12.10
2018,09,30,04,43,12.10
2018,09,30,04,44,12.10
2018,09,30,04,45,12.10
2018,09,30,04,46,12.10
2018,09,30,04,47,12.10
2018,09,30,04,48,12.10
2018,09,30,04,49,12.10
2018,09,30,04,50,12.10
2018,09,30,04,51,12.10
2018,09,30,04,52,12.10
2018,09,30,04,53,12.10
2018,09,30,04,54,12.10
2018,09,30,04,55,12.10
2018,09,30,04,56,12.10
2018,09,30,04,57,12.10
2018,09,30,04,58,12.10
2018,09,30,04,59,12.10
2018,09,30,05,00,12.10
2018,09,30,05,01,12.10
2018,09,30,05,02,12.10
2018,09,30,05,03,12.10
2018,09,30,05,04,12.10
2018,09,30,05,05,12.10
2018,09,30,05,06,12.10
2018,09,30,05,07,12.10
2018,09,30,05,08,12.10
2018,09,30,05,09,12.10
2018,09,30,05,10,12.10
2018,09,30,05,11,12.10
2018,09,30,05,12,12.10
2018,09,30,05,13,12.10
2018,09,30,05,14,12.10
2018,09,30,05,15,12.10
2018,09,30,05,16,12.10
2018,09,30,05,17,12.10
2018,09,30,05,18,12.10
2018,09,30,05,19,12.10
2018,09,30,05,20,12.10
2018,09,30,05,21,12.10
2018,09,30,05,22,12.10
2018,09,30,05,23,12.10
2018,09,30,05,24,12.10
2018,09,30,05,25,12.10
2018,09,30,05,26,12.10
2018,09,30,05,27,12.10
2018,09,30,05,28,12.10
2018,09,30,05,29,12.10
2018,09,30,05,30,12.10
2018,09,30,05,31,12.10
2018,09,30,05,32,12.10
2018,09,30,05,33,12.10
2018,09,30,05,34,12.10
2018,09,30,05,35,12.10
2018,09,30,05,36,12.10
2018,09,30,05,37,12.10
2018,09,30,05,38,12.10
2018,09,30,05,39,12.10
2018,09,30,05,40,12.10
2018,09,30,05,41,12.10
2018,09,30,05,42,12.10
2018,09,30,05,43,12.20
2018,09,30,05,44,12.20
2018,09,30,05,45,12.20
2018,09,30,05,46,12.20
2018,09,30,05,47,12.30
2018,09,30,05,48,12.30
2018,09,30,05,49,12.30
2018,09,30,05,50,12.30
2018,09,30,05,51,12.30
2018,09,30,05,52,12.30
2018,09,30,05,53,12.30
2018,09,30,05,54,12.30
2018,09,30,05,55,12.30
2018,09,30,05,56,12.30
2018,09,30,05,57,12.30
2018,09,30,05,58,12.30
2018,09,30,05,59,12.30
2018,09,30,06,00,12.30
2018,09,30,06,01,12.40
2018,09,30,06,02,12.40
2018,09,30,06,03,12.40
2018,09,30,06,04,12.40
2018,09,30,06,05,12.40
2018,09,30,06,06,12.40
2018,09,30,06,07,12.40
2018,09,30,06,08,12.40
2018,09,30,06,09,12.40
2018,09,30,06,10,12.40
2018,09,30,06,11,12.40
2018,09,30,06,12,12.40
2018,09,30,06,13,12.40
2018,09,30,06,14,12.40
2018,09,30,06,15,12.40
2018,09,30,06,16,12.40
2018,09,30,06,17,12.40
2018,09,30,06,18,12.40
2018,09,30,06,19,12.40
2018,09,30,06,20,12.40
2018,09,30,06,21,12.50
2018,09,30,06,22,12.50
2018,09,30,06,23,12.50
2018,09,30,06,24,12.50
2018,09,30,06,25,12.50
2018,09,30,06,26,12.50
2018,09,30,06,27,12.50
2018,09,30,06,28,12.50
2018,09,30,06,29,12.50
2018,09,30,06,30,12.50
2018,09,30,06,31,12.50
2018,09,30,06,32,12.50
2018,09,30,06,33,12.50
2018,09,30,06,34,12.50
2018,09,30,06,35,12.50
2018,09,30,06,36,12.50
2018,09,30,06,37,12.50
2018,09,30,06,38,12.40
2018,09,30,06,39,12.40
2018,09,30,06,40,12.40
2018,09,30,06,41,12.40
2018,09,30,06,42,12.40
2018,09,30,06,43,12.40
2018,09,30,06,44,12.30
2018,09,30,06,45,12.30
2018,09,30,06,46,12.30
2018,09,30,06,47,12.30
2018,09,30,06,48,12.20
2018,09,30,06,49,12.20
2018,09,30,06,50,12.20
2018,09,30,06,51,12.10
2018,09,30,06,52,12.10
2018,09,30,06,53,12.10
2018,09,30,06,54,12.10
2018,09,30,06,55,12.10
2018,09,30,06,56,12.00
2018,09,30,06,57,12.00
2018,09,30,06,58,12.00
2018,09,30,06,59,12.00
2018,09,30,07,00,12.00
2018,09,30,07,01,11.90
2018,09,30,07,02,11.90
2018,09,30,07,03,11.90
2018,09,30,07,04,11.90
2018,09,30,07,05,11.90
2018,09,30,07,06,11.90
2018,09,30,07,07,11.90
2018,09,30,07,08,11.80
2018,09,30,07,09,11.80
2018,09,30,07,10,11.80
2018,09,30,07,11,11.80
2018,09,30,07,12,11.80
2018,09,30,07,13,11.80
2018,09,30,07,14,11.80
2018,09,30,07,15,11.80
2018,09,30,07,16,11.80
2018,09,30,07,17,11.80
2018,09,30,07,18,11.80
2018,09,30,07,19,11.80
2018,09,30,07,20,11.70
2018,09,30,07,21,11.70
2018,09,30,07,22,11.70
2018,09,30,07,23,11.70
2018,09,30,07,24,11.70
2018,09,30,07,25,11.70
2018,09,30,07,26,11.70
2018,09,30,07,27,11.70
2018,09,30,07,28,11.70
2018,09,30,07,29,11.70
2018,09,30,07,30,11.70
2018,09,30,07,31,11.70
2018,09,30,07,32,11.70
2018,09,30,07,33,11.70
2018,09,30,07,34,11.70
2018,09,30,07,35,11.70
2018,09,30,07,36,11.70
2018,09,30,07,37,11.70
2018,09,30,07,38,11.70
2018,09,30,07,39,11.70
2018,09,30,07,40,11.70
2018,09,30,07,41,11.70
2018,09,30,07,42,11.70
2018,09,30,07,43,11.70
2018,09,30,07,44,11.70
2018,09,30,07,45,11.70
2018,09,30,07,46,11.70
2018,09,30,07,47,11.70
2018,09,30,07,48,11.70
2018,09,30,07,49,11.70
2018,09,30,07,50,11.70
2018,09,30,07,51,11.70
2018,09,30,07,52,11.70
2018,09,30,07,53,11.70
2018,09,30,07,54,11.70
2018,09,30,07,55,11.70
2018,09,30,07,56,11.70
2018,09,30,07,57,11.70
2018,09,30,07,58,11.70
2018,09,30,07,59,11.70
2018,09,30,08,00,11.70
2018,09,30,08,01,11.70
2018,09,30,08,02,11.70
2018,09,30,08,03,11.70
2018,09,30,08,04,11.70
2018,09,30,08,05,11.70
2018,09,30,08,06,11.70
2018,09,30,08,07,11.70
2018,09,30,08,08,11.70
2018,09,30,08,09,11.70
2018,09,30,08,10,11.70
2018,09,30,08,11,11.70
2018,09,30,08,12,11.70
2018,09,30,08,13,11.70
2018,09,30,08,14,11.70
2018,09,30,08,15,11.70
2018,09,30,08,16,11.70
2018,09,30,08,17,11.60
2018,09,30,08,18,11.60
2018,09,30,08,19,11.60
2018,09,30,08,20,11.60
2018,09,30,08,21,11.60
2018,09,30,08,22,11.60
2018,09,30,08,23,11.60
2018,09,30,08,24,11.60
2018,09,30,08,25,11.60
2018,09,30,08,26,11.60
2018,09,30,08,27,11.50
2018,09,30,08,28,11.50
2018,09,30,08,29,11.50
2018,09,30,08,30,11.50
2018,09,30,08,31,11.50
2018,09,30,08,32,11.50
2018,09,30,08,33,11.50
2018,09,30,08,34,11.50
2018,09,30,08,35,11.50
2018,09,30,08,36,11.50
2018,09,30,08,37,11.50
2018,09,30,08,38,11.40
2018,09,30,08,39,11.40
2018,09,30,08,40,11.40
2018,09,30,08,41,11.40
2018,09,30,08,42,11.40
2018,09,30,08,43,11.40
2018,09,30,08,44,11.40
2018,09,30,08,45,11.40
2018,09,30,08,46,11.40
2018,09,30,08,47,11.40
2018,09,30,08,48,11.40
2018,09,30,08,49,11.40
2018,09,30,08,50,11.40
2018,09,30,08,51,11.40
2018,09,30,08,52,11.40
2018,09,30,08,53,11.40
2018,09,30,08,54,11.40
2018,09,30,08,55,11.40
2018,09,30,08,56,11.40
2018,09,30,08,57,11.40
2018,09,30,08,58,11.40
2018,09,30,08,59,11.40
2018,09,30,09,00,11.40
2018,09,30,09,01,11.40
2018,09,30,09,02,11.40
2018,09,30,09,03,11.40
2018,09,30,09,04,11.40
2018,09,30,09,05,11.40
2018,09,30,09,06,11.40
2018,09,30,09,07,11.40
2018,09,30,09,08,11.40
2018,09,30,09,09,11.40
2018,09,30,09,10,11.40
2018,09,30,09,11,11.40
2018,09,30,09,12,11.40
2018,09,30,09,13,11.40
2018,09,30,09,14,11.40
2018,09,30,09,15,11.40
2018,09,30,09,16,11.40
2018,09,30,09,17,11.40
2018,09,30,09,18,11.40
2018,09,30,09,19,11.40
2018,09,30,09,20,11.40
2018,09,30,09,21,11.50
2018,09,30,09,22,11.50
2018,09,30,09,23,11.50
2018,09,30,09,24,11.50
2018,09,30,09,25,11.40
2018,09,30,09,26,11.40
2018,09,30,09,27,11.40
2018,09,30,09,28,11.40
2018,09,30,09,29,11.40
2018,09,30,09,30,11.40
2018,09,30,09,31,11.40
2018,09,30,09,32,11.40
2018,09,30,09,33,11.40
2018,09,30,09,34,11.40
2018,09,30,09,35,11.40
2018,09,30,09,36,11.40
2018,09,30,09,37,11.40
2018,09,30,09,38,11.40
2018,09,30,09,39,11.40
2018,09,30,09,40,11.40
2018,09,30,09,41,11.40
2018,09,30,09,42,11.40
2018,09,30,09,43,11.40
2018,09,30,09,44,11.40
2018,09,30,09,45,11.40
2018,09,30,09,46,11.40
2018,09,30,09,47,11.40
2018,09,30,09,48,11.40
2018,09,30,09,49,11.40
2018,09,30,09,50,11.40
2018,09,30,09,51,11.40
2018,09,30,09,52,11.40
2018,09,30,09,53,11.40
2018,09,30,09,54,11.40
2018,09,30,09,55,11.40
2018,09,30,09,56,11.40
2018,09,30,09,57,11.40
2018,09,30,09,58,11.40
2018,09,30,09,59,11.40
2018,09,30,10,00,11.50
2018,09,30,10,01,11.50
2018,09,30,10,02,11.50
2018,09,30,10,03,11.50
2018,09,30,10,04,11.50
2018,09,30,10,05,11.50
2018,09,30,10,06,11.50
2018,09,30,10,07,11.50
2018,09,30,10,08,11.50
2018,09,30,10,09,11.50
2018,09,30,10,10,11.50
2018,09,30,10,11,11.50
2018,09,30,10,12,11.50
2018,09,30,10,13,11.50
2018,09,30,10,14,11.50
2018,09,30,10,15,11.50
2018,09,30,10,16,11.50
2018,09,30,10,17,11.50
2018,09,30,10,18,11.50
2018,09,30,10,19,11.50
2018,09,30,10,20,11.50
2018,09,30,10,21,11.50
2018,09,30,10,22,11.50
2018,09,30,10,23,11.50
2018,09,30,10,24,11.50
2018,09,30,10,25,11.50
2018,09,30,10,26,11.50
2018,09,30,10,27,11.50
2018,09,30,10,28,11.50
2018,09,30,10,29,11.50
2018,09,30,10,30,11.50
2018,09,30,10,31,11.50
2018,09,30,10,32,11.50
2018,09,30,10,33,11.50
2018,09,30,10,34,11.50
2018,09,30,10,35,11.50
2018,09,30,10,36,11.50
2018,09,30,10,37,11.50
2018,09,30,10,38,11.50
2018,09,30,10,39,11.50
2018,09,30,10,40,11.40
2018,09,30,10,41,11.40
2018,09,30,10,42,11.40
2018,09,30,10,43,11.40
2018,09,30,10,44,11.40
2018,09,30,10,45,11.40
2018,09,30,10,46,11.40
2018,09,30,10,47,11.40
2018,09,30,10,48,11.40
2018,09,30,10,49,11.40
2018,09,30,10,50,11.40
2018,09,30,10,51,11.40
2018,09,30,10,52,11.40
2018,09,30,10,53,11.40
2018,09,30,10,54,11.40
2018,09,30,10,55,11.30
2018,09,30,10,56,11.30
2018,09,30,10,57,11.30
2018,09,30,10,58,11.30
2018,09,30,10,59,11.30
2018,09,30,11,00,11.30
2018,09,30,11,01,11.30
2018,09,30,11,02,11.30
2018,09,30,11,03,11.30
2018,09,30,11,04,11.30
2018,09,30,11,05,11.30
2018,09,30,11,06,11.30
2018,09,30,11,07,11.30
2018,09,30,11,08,11.30
2018,09,30,11,09,11.30
2018,09,30,11,10,11.30
2018,09,30,11,11,11.30
2018,09,30,11,12,11.30
2018,09,30,11,13,11.30
2018,09,30,11,14,11.30
2018,09,30,11,15,11.30
2018,09,30,11,16,11.30
2018,09,30,11,17,11.30
2018,09,30,11,18,11.30
2018,09,30,11,19,11.30
2018,09,30,11,20,11.30
2018,09,30,11,21,11.30
2018,09,30,11,22,11.30
2018,09,30,11,23,11.30
2018,09,30,11,24,11.40
2018,09,30,11,25,11.40
2018,09,30,11,26,11.40
2018,09,30,11,27,11.40
2018,09,30,11,28,11.40
2018,09,30,11,29,11.40
2018,09,30,11,30,11.40
2018,09,30,11,31,11.40
2018,09,30,11,32,11.50
2018,09,30,11,33,11.50
2018,09,30,11,34,11.40
2018,09,30,11,35,11.40
2018,09,30,11,36,11.50
2018,09,30,11,37,11.50
2018,09,30,11,38,11.50
2018,09,30,11,39,11.50
2018,09,30,11,40,11.50
2018,09,30,11,41,11.50
2018,09,30,11,42,11.40
2018,09,30,11,43,11.40
2018,09,30,11,44,11.40
2018,09,30,11,45,11.40
2018,09,30,11,46,11.40
2018,09,30,11,47,11.40
2018,09,30,11,48,11.40
2018,09,30,11,49,11.40
2018,09,30,11,50,11.40
2018,09,30,11,51,11.40
2018,09,30,11,52,11.30
2018,09,30,11,53,11.30
2018,09,30,11,54,11.30
2018,09,30,11,55,11.30
2018,09,30,11,56,11.30
2018,09,30,11,57,11.30
2018,09,30,11,58,11.30
2018,09,30,11,59,11.30
2018,09,30,12,00,11.30
2018,09,30,12,01,11.30
2018,09,30,12,02,11.30
2018,09,30,12,03,11.30
2018,09,30,12,04,11.30
2018,09,30,12,05,11.30
2018,09,30,12,06,11.30
2018,09,30,12,07,11.30
2018,09,30,12,08,11.30
2018,09,30,12,09,11.30
2018,09,30,12,10,11.30
2018,09,30,12,11,11.30
2018,09,30,12,12,11.30
2018,09,30,12,13,11.30
2018,09,30,12,14,11.30
2018,09,30,12,15,11.30
2018,09,30,12,16,11.30
2018,09,30,12,17,11.30
2018,09,30,12,18,11.30
2018,09,30,12,19,11.40
2018,09,30,12,20,11.40
2018,09,30,12,21,11.40
2018,09,30,12,22,11.40
2018,09,30,12,23,11.40
2018,09,30,12,24,11.40
2018,09,30,12,25,11.40
2018,09,30,12,26,11.40
2018,09,30,12,27,11.40
2018,09,30,12,28,11.40
2018,09,30,12,29,11.40
2018,09,30,12,30,11.40
2018,09,30,12,31,11.40
2018,09,30,12,32,11.40
2018,09,30,12,33,11.40
2018,09,30,12,34,11.40
2018,09,30,12,35,11.40
2018,09,30,12,36,11.50
2018,09,30,12,37,11.50
2018,09,30,12,38,11.50
2018,09,30,12,39,11.50
2018,09,30,12,40,11.50
2018,09,30,12,41,11.50
2018,09,30,12,42,11.50
2018,09,30,12,43,11.50
2018,09,30,12,44,11.50
2018,09,30,12,45,11.50
2018,09,30,12,46,11.50
2018,09,30,12,47,11.50
2018,09,30,12,48,11.50
2018,09,30,12,49,11.50
2018,09,30,12,50,11.50
2018,09,30,12,51,11.50
2018,09,30,12,52,11.50
2018,09,30,12,53,11.50
2018,09,30,12,54,11.50
2018,09,30,12,55,11.50
2018,09,30,12,56,11.50
2018,09,30,12,57,11.50
2018,09,30,12,58,11.50
2018,09,30,12,59,11.50
2018,09,30,13,00,11.60
2018,09,30,13,01,11.60
2018,09,30,13,02,11.60
2018,09,30,13,03,11.60
2018,09,30,13,04,11.60
2018,09,30,13,05,11.60
2018,09,30,13,06,11.60
2018,09,30,13,07,11.60
2018,09,30,13,08,11.60
2018,09,30,13,09,11.60
2018,09,30,13,10,11.60
2018,09,30,13,11,11.60
2018,09,30,13,12,11.60
2018,09,30,13,13,11.60
2018,09,30,13,14,11.60
2018,09,30,13,15,11.60
2018,09,30,13,16,11.60
2018,09,30,13,17,11.60
2018,09,30,13,18,11.60
2018,09,30,13,19,11.60
2018,09,30,13,20,11.60
2018,09,30,13,21,11.70
2018,09,30,13,22,11.70
2018,09,30,13,23,11.70
2018,09,30,13,24,11.70
2018,09,30,13,25,11.70
2018,09,30,13,26,11.70
2018,09,30,13,27,11.70
2018,09,30,13,28,11.70
2018,09,30,13,29,11.70
2018,09,30,13,30,11.70
2018,09,30,13,31,11.70
2018,09,30,13,32,11.70
2018,09,30,13,33,11.70
2018,09,30,13,34,11.70
2018,09,30,13,35,11.70
2018,09,30,13,36,11.70
2018,09,30,13,37,11.70
2018,09,30,13,38,11.70
2018,09,30,13,39,11.70
2018,09,30,13,40,11.70
2018,09,30,13,41,11.70
2018,09,30,13,42,11.70
2018,09,30,13,43,11.70
2018,09,30,13,44,11.70
2018,09,30,13,45,11.70
2018,09,30,13,46,11.70
2018,09,30,13,47,11.70
2018,09,30,13,48,11.70
2018,09,30,13,49,11.70
2018,09,30,13,50,11.60
2018,09,30,13,51,11.60
2018,09,30,13,52,11.60
2018,09,30,13,53,11.60
2018,09,30,13,54,11.60
2018,09,30,13,55,11.60
2018,09,30,13,56,11.60
2018,09,30,13,57,11.60
2018,09,30,13,58,11.50
2018,09,30,13,59,11.50
2018,09,30,14,00,11.50
2018,09,30,14,01,11.50
2018,09,30,14,02,11.40
2018,09,30,14,03,11.40
2018,09,30,14,04,11.40
2018,09,30,14,05,11.40
2018,09,30,14,06,11.40
2018,09,30,14,07,11.40
2018,09,30,14,08,11.40
2018,09,30,14,09,11.40
2018,09,30,14,10,11.40
2018,09,30,14,11,11.30
2018,09,30,14,12,11.30
2018,09,30,14,13,11.30
2018,09,30,14,14,11.30
2018,09,30,14,15,11.30
2018,09,30,14,16,11.30
2018,09,30,14,17,11.30
2018,09,30,14,18,11.30
2018,09,30,14,19,11.30
2018,09,30,14,20,11.30
2018,09,30,14,21,11.30
2018,09,30,14,22,11.40
2018,09,30,14,23,11.40
2018,09,30,14,24,11.40
2018,09,30,14,25,11.40
2018,09,30,14,26,11.40
2018,09,30,14,27,11.40
2018,09,30,14,28,11.40
2018,09,30,14,29,11.40
2018,09,30,14,30,11.40
2018,09,30,14,31,11.30
2018,09,30,14,32,11.30
2018,09,30,14,33,11.30
2018,09,30,14,34,11.30
2018,09,30,14,35,11.30
2018,09,30,14,36,11.30
2018,09,30,14,37,11.30
2018,09,30,14,38,11.30
2018,09,30,14,39,11.30
2018,09,30,14,40,11.30
2018,09,30,14,41,11.30
2018,09,30,14,42,11.30
2018,09,30,14,43,11.30
2018,09,30,14,44,11.30
2018,09,30,14,45,11.30
2018,09,30,14,46,11.30
2018,09,30,14,47,11.30
2018,09,30,14,48,11.30
2018,09,30,14,49,11.30
2018,09,30,14,50,11.20
2018,09,30,14,51,11.20
2018,09,30,14,52,11.20
2018,09,30,14,53,11.20
2018,09,30,14,54,11.20
2018,09,30,14,55,11.20
2018,09,30,14,56,11.20
2018,09,30,14,57,11.20
2018,09,30,14,58,11.20
2018,09,30,14,59,11.10
2018,09,30,15,00,11.10
2018,09,30,15,01,11.10
2018,09,30,15,02,11.10
2018,09,30,15,03,11.10
2018,09,30,15,04,11.00
2018,09,30,15,05,11.00
2018,09,30,15,06,11.00
2018,09,30,15,07,10.90
2018,09,30,15,08,10.90
2018,09,30,15,09,10.90
2018,09,30,15,10,10.90
2018,09,30,15,11,10.90
2018,09,30,15,12,10.90
2018,09,30,15,13,10.90
2018,09,30,15,14,10.80
2018,09,30,15,15,10.80
2018,09,30,15,16,10.80
2018,09,30,15,17,10.80
2018,09,30,15,18,10.80
2018,09,30,15,19,10.80
2018,09,30,15,20,10.80
2018,09,30,15,21,10.80
2018,09,30,15,22,10.80
2018,09,30,15,23,10.80
2018,09,30,15,24,10.80
2018,09,30,15,25,10.80
2018,09,30,15,26,10.80
2018,09,30,15,27,10.80
2018,09,30,15,28,10.80
2018,09,30,15,29,10.80
2018,09,30,15,30,10.80
2018,09,30,15,31,10.80
2018,09,30,15,32,10.80
2018,09,30,15,33,10.80
2018,09,30,15,34,10.80
2018,09,30,15,35,10.80
2018,09,30,15,36,10.80
2018,09,30,15,37,10.80
2018,09,30,15,38,10.80
2018,09,30,15,39,10.80
2018,09,30,15,40,10.80
2018,09,30,15,41,10.80
2018,09,30,15,42,10.80
2018,09,30,15,43,10.80
2018,09,30,15,44,10.80
2018,09,30,15,45,10.80
2018,09,30,15,46,10.80
2018,09,30,15,47,10.80
2018,09,30,15,48,10.80
2018,09,30,15,49,10.70
2018,09,30,15,50,10.70
2018,09,30,15,51,10.70
2018,09,30,15,52,10.70
2018,09,30,15,53,10.70
2018,09,30,15,54,10.70
2018,09,30,15,55,10.70
2018,09,30,15,56,10.70
2018,09,30,15,57,10.70
2018,09,30,15,58,10.70
2018,09,30,15,59,10.70
2018,09,30,16,00,10.70
2018,09,30,16,01,10.70
2018,09,30,16,02,10.70
2018,09,30,16,03,10.70
2018,09,30,16,04,10.70
2018,09,30,16,05,10.70
2018,09,30,16,06,10.70
2018,09,30,16,07,10.70
2018,09,30,16,08,10.70
2018,09,30,16,09,10.70
2018,09,30,16,10,10.70
2018,09,30,16,11,10.70
2018,09,30,16,12,10.70
2018,09,30,16,13,10.70
2018,09,30,16,14,10.70
2018,09,30,16,15,10.70
2018,09,30,16,16,10.60
2018,09,30,16,17,10.60
2018,09,30,16,18,10.60
2018,09,30,16,19,10.50
2018,09,30,16,20,10.50
2018,09,30,16,21,10.40
2018,09,30,16,22,10.40
2018,09,30,16,23,10.40
2018,09,30,16,24,10.40
2018,09,30,16,25,10.30
2018,09,30,16,26,10.30
2018,09,30,16,27,10.30
2018,09,30,16,28,10.30
2018,09,30,16,29,10.30
2018,09,30,16,30,10.30
2018,09,30,16,31,10.30
2018,09,30,16,32,10.30
2018,09,30,16,33,10.20
2018,09,30,16,34,10.20
2018,09,30,16,35,10.20
2018,09,30,16,36,10.20
2018,09,30,16,37,10.20
2018,09,30,16,38,10.20
2018,09,30,16,39,10.20
2018,09,30,16,40,10.10
2018,09,30,16,41,10.10
2018,09,30,16,42,10.10
2018,09,30,16,43,10.10
2018,09,30,16,44,10.10
2018,09,30,16,45,10.10
2018,09,30,16,46,10.10
2018,09,30,16,47,10.10
2018,09,30,16,48,10.10
2018,09,30,16,49,10.10
2018,09,30,16,50,10.10
2018,09,30,16,51,10.10
2018,09,30,16,52,10.10
2018,09,30,16,53,10.10
2018,09,30,16,54,10.10
2018,09,30,16,55,10.10
2018,09,30,16,56,10.10
2018,09,30,16,57,10.10
2018,09,30,16,58,10.10
2018,09,30,16,59,10.10
2018,09,30,17,00,10.10
2018,09,30,17,01,10.10
2018,09,30,17,02,10.00
2018,09,30,17,03,10.00
2018,09,30,17,04,10.00
2018,09,30,17,05,10.00
2018,09,30,17,06,10.00
2018,09,30,17,07,10.00
2018,09,30,17,08,10.00
2018,09,30,17,09,10.00
2018,09,30,17,10,9.90
2018,09,30,17,11,9.90
2018,09,30,17,12,9.90
2018,09,30,17,13,9.90
2018,09,30,17,14,9.90
2018,09,30,17,15,9.90
2018,09,30,17,16,9.90
2018,09,30,17,17,9.90
2018,09,30,17,18,9.90
2018,09,30,17,19,9.90